Regional Weather Roundup
Issued by NWS

Home | Current Version | Previous Version | Text Only | Print | Product List | Glossary On
Versions: 1 2 3 4 5 6 7 8 9 10 11 12 13 14 15 16 17 18 19 20 21 22 23 24 25 26 27 28 29 30 31 32 33 34 35 36 37 38 39 40 41 42 43 44 45 46 47 48 49 50
000
ASUS43 KBIS 311010
RWRND

NORTH DAKOTA REGIONAL WEATHER ROUNDUP
NATIONAL WEATHER SERVICE BISMARCK ND
500 AM CDT SUN JUL 31 2016

NOTE: "FAIR" INDICATES FEW OR NO CLOUDS BELOW 12,000 FEET WITH NO
SIGNIFICANT WEATHER AND/OR OBSTRUCTIONS TO VISIBILITY.


NDZ001>003-009>011-017-311100-
NORTHWEST NORTH DAKOTA

CITY           SKY/WX    TMP DP  RH WIND       PRES   REMARKS
WILLISTON      CLOUDY    68  59  73 CALM      29.67F
MINOT          CLEAR     67  62  84 E6        29.73F
MINOT AFB      CLEAR     60  59  96 SE8       29.72F
$$

NDZ018>021-031>035-040>046-311100-
SOUTHWEST NORTH DAKOTA

CITY           SKY/WX    TMP DP  RH WIND       PRES   REMARKS
BISMARCK       CLEAR     67  64  90 SE9       29.78R
DICKINSON      MOCLDY    62  59  90 W8        29.77F
GARRISON         N/A     65  64  97 SE3       29.76S
HETTINGER ARPT CLEAR     63  56  78 SE3       29.78F
$$

NDZ004>008-012>016-024-026-027-054-311100-
NORTHEAST NORTH DAKOTA

CITY           SKY/WX    TMP DP  RH WIND       PRES   REMARKS
GRAND FORKS    CLEAR     61  57  87 SE8       29.86S
GRND FRKS AFB  CLEAR     62  57  85 S7        29.86S
DEVILS LAKE    CLEAR     66  61  84 SE13      29.83S
$$

NDZ022-023-025-028>030-036>039-047>053-311100-
SOUTHEAST NORTH DAKOTA

CITY           SKY/WX    TMP DP  RH WIND       PRES   REMARKS
FARGO          PTCLDY    66  57  72 SE13      29.88S
JAMESTOWN      PTCLDY    63  60  90 SE12      29.84R
$$





USA.gov is the U.S. government's official web portal to all federal, state and local government web resources and services.